Weather History for Indiana, PA

Change the Weather History Date:

Friday, August 2, 2013

  Actual Average Record
Temperature  
Mean Temperature 66 °F -  
Max Temperature 73 °F 82 °F 95 °F (1955)
Min Temperature 59 °F 58 °F 43 °F (1976)
Cooling Degree Days 1    
Growing Degree Days 16 (Base 50)    
Moisture  
Dew Point 60 °F    
Average Humidity 81    
Maximum Humidity 100    
Minimum Humidity 50    
Precipitation  
Precipitation 0.00 in - - ()
Sea Level Pressure  
Sea Level Pressure 29.98 in    
Wind  
Wind Speed 3 mph (West)    
Max Wind Speed 17 mph    
Max Gust Speed 22 mph    
Visibility 10 miles    
Events      
Averages and records for this station are not official NWS values.
T = Trace of Precipitation, MM = Missing Value Source: NWS Daily Summary

Daily Weather History Graph

Daily Weather History Graph

Search for Another Location

Airport:

Trip Planner

Search our weather history database for the weather conditions in past years. The results will help you decide how hot, cold, wet, or windy it might be!

Date:

Astronomy

Aug. 02, 2013 Rise Set
Actual Time 6:14 AM EDT 8:30 PM EDT
Civil Twilight 5:43 AM EDT 9:00 PM EDT
Nautical Twilight 5:06 AM EDT 9:38 PM EDT
Astronomical Twilight 4:24 AM EDT 10:19 PM EDT
Moon 2:33 AM EDT (8/2) 5:26 PM EDT (8/2)
Length of Visible Light 15h 16m
Length of Day
14h 15m
Waning Crescent, 16% of the Moon is Illuminated
Aug 2
Waning Crescent
Aug 6
New
Aug 14
First Quarter
Aug 20
Full
Aug 28
Last Quarter

Hourly Weather History & Observations

Time (EDT) Temp. Dew Point Humidity Pressure Visibility Wind Dir Wind Speed Gust Speed Precip Events Conditions
12:15 AM 60.8 °F 60.8 °F 100% 29.95 in 10.0 mi Calm Calm - N/A   Unknown
12:35 AM 60.8 °F 60.8 °F 100% 29.96 in 10.0 mi Calm Calm - N/A   Unknown
12:55 AM 60.8 °F 60.8 °F 100% 29.96 in 10.0 mi Calm Calm - N/A   Unknown
1:15 AM 60.8 °F 60.8 °F 100% 29.95 in 10.0 mi Calm Calm - N/A   Unknown
1:35 AM 60.8 °F 60.8 °F 100% 29.95 in 10.0 mi Calm Calm - N/A   Unknown
1:55 AM 60.8 °F 60.8 °F 100% 29.95 in 10.0 mi Calm Calm - N/A   Unknown
2:15 AM 60.8 °F 60.8 °F 100% 29.95 in 10.0 mi Calm Calm - N/A   Unknown
2:35 AM 60.8 °F 60.8 °F 100% 29.94 in 10.0 mi Calm Calm - N/A   Unknown
2:55 AM 59.0 °F 59.0 °F 100% 29.94 in 10.0 mi Calm Calm - N/A   Unknown
3:15 AM 59.0 °F 59.0 °F 100% 29.95 in 10.0 mi Calm Calm - N/A   Unknown
3:35 AM 60.8 °F 60.8 °F 100% 29.95 in 10.0 mi Calm Calm - N/A   Unknown
3:55 AM 60.8 °F 60.8 °F 100% 29.95 in 10.0 mi Calm Calm - N/A   Unknown
4:15 AM 60.8 °F 60.8 °F 100% 29.95 in 7.0 mi Calm Calm - N/A   Unknown
4:35 AM 60.8 °F 60.8 °F 100% 29.95 in 10.0 mi Calm Calm - N/A   Unknown
4:55 AM 60.8 °F 60.8 °F 100% 29.94 in 10.0 mi Calm Calm - N/A   Unknown
5:15 AM 60.8 °F 60.8 °F 100% 29.94 in 10.0 mi Calm Calm - N/A   Unknown
5:35 AM 60.8 °F 60.8 °F 100% 29.95 in 10.0 mi Calm Calm - N/A   Unknown
5:55 AM 60.8 °F 60.8 °F 100% 29.96 in 7.0 mi Calm Calm - N/A   Unknown
6:15 AM 60.8 °F 60.8 °F 100% 29.96 in 7.0 mi Calm Calm - N/A   Unknown
6:35 AM 60.8 °F 60.8 °F 100% 29.97 in 4.0 mi Calm Calm - N/A   Unknown
6:55 AM 60.8 °F 60.8 °F 100% 29.98 in 5.0 mi Calm Calm - N/A   Unknown
7:15 AM 60.8 °F 60.8 °F 100% 29.99 in 4.0 mi Calm Calm - N/A   Unknown
7:35 AM 60.8 °F 60.8 °F 100% 29.99 in 5.0 mi WSW 3.5 mph - N/A   Unknown
7:55 AM 60.8 °F 60.8 °F 100% 30.00 in 7.0 mi SW 4.6 mph - N/A   Unknown
8:35 AM 62.6 °F 62.6 °F 100% 30.00 in 7.0 mi WSW 6.9 mph - N/A   Unknown
8:55 AM 64.4 °F 64.4 °F 100% 30.00 in 10.0 mi SW 8.1 mph - N/A   Unknown
9:15 AM 64.4 °F 64.4 °F 100% 30.00 in 10.0 mi WSW 5.8 mph - N/A   Unknown
9:35 AM 66.2 °F 64.4 °F 94% 29.99 in 10.0 mi West 6.9 mph - N/A   Unknown
9:55 AM 66.2 °F 64.4 °F 94% 29.99 in 10.0 mi WSW 8.1 mph - N/A   Unknown
10:15 AM 68.0 °F 64.4 °F 88% 29.99 in 10.0 mi SW 6.9 mph - N/A   Unknown
10:35 AM 69.8 °F 66.2 °F 88% 29.99 in 10.0 mi WSW 6.9 mph - N/A   Unknown
10:55 AM 69.8 °F 64.4 °F 83% 30.00 in 10.0 mi West 8.1 mph - N/A   Unknown
11:15 AM 71.6 °F 62.6 °F 73% 29.99 in 10.0 mi NW 6.9 mph - N/A   Unknown
11:35 AM 71.6 °F 62.6 °F 73% 30.00 in 10.0 mi West 8.1 mph - N/A   Unknown
11:55 AM 71.6 °F 60.8 °F 69% 30.00 in 10.0 mi West 10.4 mph - N/A   Unknown
12:15 PM 73.4 °F 59.0 °F 61% 30.00 in 10.0 mi WNW 8.1 mph - N/A   Unknown
12:35 PM 73.4 °F 60.8 °F 65% 30.00 in 10.0 mi West 10.4 mph - N/A   Unknown
12:55 PM 73.4 °F 59.0 °F 61% 30.00 in 10.0 mi West 10.4 mph - N/A   Unknown
1:15 PM 73.4 °F 57.2 °F 57% 29.99 in 10.0 mi West 12.7 mph 18.4 mph N/A   Unknown
1:35 PM 73.4 °F 57.2 °F 57% 30.00 in 10.0 mi West 13.8 mph 17.3 mph N/A   Unknown
1:55 PM 73.4 °F 53.6 °F 50% 30.00 in 10.0 mi West 13.8 mph 20.7 mph N/A   Unknown
2:15 PM 73.4 °F 53.6 °F 50% 30.00 in 10.0 mi West 16.1 mph 21.9 mph N/A   Unknown
2:35 PM 73.4 °F 53.6 °F 50% 30.01 in 10.0 mi West 11.5 mph 21.9 mph N/A   Unknown
2:55 PM 73.4 °F 55.4 °F 53% 30.02 in 10.0 mi West 17.3 mph - N/A   Unknown
3:15 PM 73.4 °F 55.4 °F 53% 30.02 in 10.0 mi WNW 11.5 mph 18.4 mph N/A   Unknown
3:35 PM 71.6 °F 55.4 °F 57% 30.01 in 10.0 mi WSW 12.7 mph 19.6 mph N/A   Unknown
3:55 PM 71.6 °F 55.4 °F 57% 29.99 in 10.0 mi WSW 11.5 mph - N/A   Unknown
4:15 PM 71.6 °F 57.2 °F 60% 30.00 in 10.0 mi West 10.4 mph - N/A   Unknown
4:35 PM 71.6 °F 57.2 °F 60% 30.00 in 10.0 mi West 8.1 mph - N/A   Unknown
4:55 PM 73.4 °F 57.2 °F 57% 30.00 in 10.0 mi WNW 9.2 mph - N/A   Unknown
5:15 PM 73.4 °F 55.4 °F 53% 29.99 in 10.0 mi West 12.7 mph - N/A   Unknown
5:35 PM 71.6 °F 57.2 °F 60% 29.98 in 10.0 mi West 8.1 mph - N/A   Unknown
5:55 PM 73.4 °F 57.2 °F 57% 29.98 in 10.0 mi West 10.4 mph - N/A   Unknown
6:15 PM 73.4 °F 55.4 °F 53% 29.98 in 10.0 mi West 10.4 mph - N/A   Unknown
6:35 PM 73.4 °F 55.4 °F 53% 29.97 in 10.0 mi West 10.4 mph - N/A   Unknown
6:55 PM 71.6 °F 57.2 °F 60% 29.97 in 10.0 mi West 8.1 mph - N/A   Unknown
7:15 PM 71.6 °F 57.2 °F 60% 29.97 in 10.0 mi West 6.9 mph - N/A   Unknown
7:35 PM 69.8 °F 59.0 °F 68% 29.97 in 10.0 mi WSW 5.8 mph - N/A   Unknown
7:55 PM 69.8 °F 59.0 °F 68% 29.97 in 10.0 mi SW 3.5 mph - N/A   Unknown
8:15 PM 68.0 °F 60.8 °F 78% 29.97 in 10.0 mi Calm Calm - N/A   Unknown
8:35 PM 68.0 °F 60.8 °F 78% 29.98 in 10.0 mi Calm Calm - N/A   Unknown
8:55 PM 69.8 °F 60.8 °F 73% 29.98 in 10.0 mi Calm Calm - N/A   Unknown
9:15 PM 66.2 °F 60.8 °F 83% 29.98 in 10.0 mi Calm Calm - N/A   Unknown
9:35 PM 64.4 °F 62.6 °F 94% 29.98 in 10.0 mi Calm Calm - N/A   Unknown
9:55 PM 66.2 °F 62.6 °F 88% 29.98 in 10.0 mi Calm Calm - N/A   Unknown
10:15 PM 66.2 °F 62.6 °F 88% 29.99 in 10.0 mi Calm Calm - N/A   Unknown
10:35 PM 66.2 °F 62.6 °F 88% 29.98 in 10.0 mi Calm Calm - N/A   Unknown
10:55 PM 66.2 °F 62.6 °F 88% 29.98 in 10.0 mi Calm Calm - N/A   Unknown
11:15 PM 66.2 °F 62.6 °F 88% 29.98 in 10.0 mi WSW 3.5 mph - N/A   Unknown
11:35 PM 66.2 °F 64.4 °F 94% 29.98 in 10.0 mi Calm Calm - N/A   Unknown
11:55 PM 66.2 °F 64.4 °F 94% 29.98 in 10.0 mi WSW 6.9 mph - N/A   Unknown